Time,TemperatureF,DewpointF,PressureIn,WindDirection,WindDirectionDegrees,WindSpeedMPH,WindSpeedGustMPH,Humidity,HourlyPrecipIn,Conditions,Clouds,dailyrainin,SoftwareType,DateUTC
2013-05-09 00:00:00,31.0,-99.9,-100.00,North,-999,-999.0,-999.0,-999,0.00,,,0.00,,2013-05-09 06:00:00,
2013-05-09 00:42:00,31.0,-99.9,-100.00,North,-999,-999.0,-999.0,-999,0.00,,,0.00,,2013-05-09 06:42:00,
2013-05-09 00:52:00,31.0,-99.9,-100.00,North,-999,-999.0,-999.0,-999,0.00,,,0.00,,2013-05-09 06:52:00,
2013-05-09 10:23:00,40.0,-99.9,-100.00,North,-999,-999.0,-999.0,-999,-99.99,,,-99.99,,2013-05-09 16:23:00,
2013-05-09 10:33:00,40.0,-99.9,-100.00,North,-999,-999.0,-999.0,-999,-99.99,,,-99.99,,2013-05-09 16:33:00,
2013-05-09 10:42:00,40.0,-99.9,-100.00,North,-999,-999.0,-999.0,-999,-99.99,,,-99.99,,2013-05-09 16:42:00,
2013-05-09 12:00:00,43.0,-99.9,-100.00,North,-999,-999.0,-999.0,-999,0.00,,,0.10,,2013-05-09 18:00:00,
2013-05-09 12:42:00,43.0,-99.9,-100.00,North,-999,-999.0,-999.0,-999,0.00,,,0.10,,2013-05-09 18:42:00,
2013-05-09 12:53:00,43.0,-99.9,-100.00,North,-999,-999.0,-999.0,-999,0.00,,,0.10,,2013-05-09 18:53:00,
2013-05-09 14:22:00,44.0,-99.9,-100.00,North,-999,-999.0,-999.0,-999,0.10,,,0.20,,2013-05-09 20:22:00,
2013-05-09 14:32:00,44.0,-99.9,-100.00,North,-999,-999.0,-999.0,-999,0.10,,,0.20,,2013-05-09 20:32:00,
2013-05-09 14:42:00,42.0,-99.9,-100.00,North,-999,-999.0,-999.0,-999,0.10,,,-99.99,,2013-05-09 20:42:00,
2013-05-09 14:52:00,42.0,-99.9,-100.00,North,-999,-999.0,-999.0,-999,0.10,,,-99.99,,2013-05-09 20:52:00,
2013-05-09 15:00:00,43.0,-99.9,-100.00,North,-999,-999.0,-999.0,-999,0.00,,,0.20,,2013-05-09 21:00:00,
2013-05-09 15:02:00,42.0,-99.9,-100.00,North,-999,-999.0,-999.0,-999,0.10,,,-99.99,,2013-05-09 21:02:00,
2013-05-09 15:12:00,42.0,-99.9,-100.00,North,-999,-999.0,-999.0,-999,0.10,,,-99.99,,2013-05-09 21:12:00,
2013-05-09 15:53:00,43.0,-99.9,-100.00,North,-999,-999.0,-999.0,-999,0.00,,,0.20,,2013-05-09 21:53:00,
2013-05-09 18:00:00,42.0,-99.9,-100.00,North,-999,-999.0,-999.0,-999,0.00,,,0.20,,2013-05-10 00:00:00,
2013-05-09 18:42:00,42.0,-99.9,-100.00,North,-999,-999.0,-999.0,-999,0.00,,,0.20,,2013-05-10 00:42:00,
2013-05-09 18:52:00,42.0,-99.9,-100.00,North,-999,-999.0,-999.0,-999,0.00,,,0.20,,2013-05-10 00:52:00,
2013-05-09 21:00:00,35.0,-99.9,-100.00,North,-999,-999.0,-999.0,-999,0.00,,,0.20,,2013-05-10 03:00:00,
2013-05-09 21:53:00,35.0,-99.9,-100.00,North,-999,-999.0,-999.0,-999,0.00,,,0.20,,2013-05-10 03:53:00,